Location: アルンシュタイン
(50.0000°N, 10.0000°E)
Time: 19:14:01
(UTC+02:00)

deb Explorer IX - All Passes

Search period start: 11 September 2024 00:00
Search period end: 21 September 2024 00:00
Orbit: 505 x 849 km, 38.7° (Epoch: 11 September)

Date Brightness Start Highest point End Pass type
(mag) Time Alt. Az. Time Alt. Az. Time Alt. Az.
11 Sep - 00:34:42 10° SW 00:39:05 24° S 00:43:12 10° ESE night (unlit)
11 Sep - 02:18:01 10° WSW 02:21:56 21° SSW 02:25:36 10° SE night (unlit)
11 Sep - 21:47:16 10° SSE 21:48:47 11° SSE 21:50:19 10° SE visible
11 Sep - 23:27:12 10° SW 23:31:30 22° SSE 23:35:34 10° ESE night (unlit)
12 Sep - 01:10:00 10° WSW 01:14:23 24° S 01:18:30 10° SE night (unlit)
12 Sep - 02:54:09 10° WSW 02:57:05 15° SSW 02:59:52 10° S night (unlit)
12 Sep - 22:20:01 10° SSW 22:23:50 18° SSE 22:27:34 10° ESE visible
13 Sep - 00:02:07 10° SW 00:06:43 25° S 00:11:04 10° SE night (unlit)
13 Sep - 01:45:36 10° WSW 01:49:34 20° SSW 01:53:17 10° SSE night (unlit)
13 Sep - 21:13:26 10° S 21:16:12 13° SSE 21:18:54 10° SE visible
13 Sep - 22:54:23 10° SW 22:58:57 24° S 23:03:20 10° ESE visible
14 Sep - 00:37:22 10° WSW 00:41:52 24° S 00:46:07 10° SE night (unlit)
14 Sep - 02:21:50 10° SW 02:24:31 14° SSW 02:27:07 10° S night (unlit)
14 Sep - 21:46:56 10° SSW 21:51:08 20° SSE 21:55:15 10° ESE visible
14 Sep - 23:29:17 10° SW 23:34:02 26° S 23:38:34 10° SE visible
15 Sep - 01:12:57 10° WSW 01:16:53 19° SSW 01:20:36 10° SSE night (unlit)
15 Sep - 20:39:55 10° S 20:43:19 16° SSE 20:46:42 10° ESE visible
15 Sep - 22:21:22 10° SW 22:26:07 25° S 22:30:43 10° ESE visible
16 Sep - 00:04:30 10° WSW 00:09:03 24° S 00:13:23 10° SE visible
16 Sep - 01:49:22 10° SW 01:51:39 13° SSW 01:53:53 10° S night (unlit)
16 Sep - 19:34:16 10° SSE 19:35:32 11° SSE 19:36:47 10° SE daylight
16 Sep - 21:13:41 10° SW 21:18:08 22° SSE 21:22:33 10° ESE visible
16 Sep - 22:56:15 10° WSW 23:01:04 26° S 23:05:43 10° SE visible
17 Sep - 00:40:05 10° WSW 00:43:52 18° SSW 00:47:31 10° SSE night (unlit)
17 Sep - 20:06:21 10° SSW 20:10:09 18° SSE 20:13:58 10° ESE visible
17 Sep - 21:48:10 10° SW 21:52:59 27° S 21:57:45 10° ESE visible
17 Sep - 23:31:24 10° WSW 23:35:55 23° SSW 23:40:16 10° SE visible
18 Sep - 01:16:55 10° SW 01:18:28 11° SSW 01:20:00 10° SSW night (unlit)
18 Sep - 18:59:49 10° S 19:02:12 13° SSE 19:04:37 10° SE daylight
18 Sep - 20:40:16 10° SW 20:44:52 24° SSE 20:49:27 10° ESE visible
18 Sep - 22:23:00 10° WSW 22:27:48 26° S 22:32:31 10° SE visible
19 Sep - 00:07:00 10° WSW 00:10:34 17° SSW 00:14:02 10° SSE visible
19 Sep - 19:32:41 10° SSW 19:36:43 20° SSE 19:40:50 10° ESE daylight
19 Sep - 21:14:44 10° SW 21:19:35 27° S 21:24:26 10° ESE visible
19 Sep - 22:58:06 10° WSW 23:02:29 22° SSW 23:06:46 10° SSE visible
20 Sep - 18:25:41 10° S 18:28:37 14° SSE 18:31:37 10° ESE daylight
20 Sep - 20:06:41 10° SW 20:11:19 25° S 20:16:01 10° ESE visible
20 Sep - 21:49:31 10° WSW 21:54:15 25° S 21:58:57 10° SE visible
20 Sep - 23:33:47 10° WSW 23:36:58 15° SSW 23:40:06 10° S visible
